Location: Cactus School
(34.5700°N, 118.0931°W)
Time: 05:52:40
(UTC-07:00)

Transit 4A - Pass Details

Date: 16 April 2024
Orbit: 871 x 971 km, 66.8° (Epoch: 22 May)

Event Time Altitude Azimuth Distance (km) Brightness Sun altitude
Rises 12:32:23 0° 161° (SSE) 3,563 11.3 65.5°
Reaches altitude 10° 12:35:53 10° 141° (SE) 2,604 10.7 65.7°
Maximum altitude 12:39:29 17° 104° (ESE) 2,155 10.2 65.8°
Drops below altitude 10° 12:43:03 10° 67° (ENE) 2,572 10.3 65.9°
Sets 12:46:27 0° 47° (NE) 3,499 10.8 65.9°
